Location: Isle of Man Observatory
(54.1776°N, 4.6264°W)
Time: 23:46:51
(UTC+01:00)

N. Korean satellite - Visible Passes

Search period start: 23 March 2019 00:00
Search period end: 02 April 2019 01:00
Orbit: 456 x 510 km, 97.2° (Epoch: 22 March)

Date Brightness Start Highest point End Pass type
(mag) Time Alt. Az. Time Alt. Az. Time Alt. Az.
24 Mar 10.1 06:23:54 10° ENE 06:25:32 13° E 06:27:11 10° ESE visible
28 Mar 10.3 06:18:21 10° ENE 06:19:34 11° E 06:20:47 10° ESE visible
01 Apr 10.6 07:13:10 10° E 07:13:33 10° E 07:13:55 10° E visible
